Content
SEND FEEDBACK

Daily
Averages
Monthly
Summary
United States of America

CHAMBERLAIN, SOUTH DAKOTA


Home > North America > United States > South Dakota
Elevation: 1320 feet     Latitude: 43 49N     Longitude: 099 20W

WEATHER
 
SELECT A DAY
Number of Records: 185,163;   Date Range: 1/1/95 - 10/19/14
 
SHARE

PRINT THIS DATA

[ ← Previous Day ]
WEATHER ALMANAC - NOVEMBER 12, 2013
[ Next Day → ]
[ °C ]   °F
Weather ElementAverageHighLow
Temperature26.7 °F48 °F (3:52 pm)9 °F (2:52 am)
Dewpoint18.3 °F28 °F (3:52 pm)3.9 °F (6:52 am)
Humidity72.1 %88 % (2:52 am)46 % (2:52 pm)
Barometer30.64 in30.86 in (1:52 am)30.31 in (11:52 pm)
Wind Speed7.9 mph15 mph (2:52 pm)
Weather ElementAverage
Wind DirectionS (175.9 °)

Weather ElementTotal
Precipitation---
Heating Degree Days36.5 (Base 65)
Averaged from 22 records on November 12, 2013
WEATHER CONDITIONS BREAKOUT
WIND DIRECTION BREAKOUT
WEATHER BY HOUR - NOVEMBER 12, 2013
[ °C ]   °F
Local TimeTemperatureDewpointHumidityBarometerVisibilityWind DirectionWind SpeedGust SpeedPrecipitationEventsConditions
1:52 AM10.0 °F5.0 °F80 %30.86 inWSW (250°)4.6 mph
2:52 AM9.0 °F6.1 °F88 %30.86 inSW (230°)5.8 mph
3:52 AM10.0 °F6.1 °F84 %30.86 inWSW (250°)5.8 mph
4:52 AM10.9 °F7.0 °F84 %30.85 inCalm
5:52 AM9.0 °F5.0 °F84 %30.84 inSouth (190°)3.5 mph
6:52 AM9.0 °F3.9 °F80 %30.83 inSSE (160°)4.6 mph
7:52 AM12.0 °F7.0 °F80 %30.82 inSouth (170°)6.9 mph
8:52 AM18.0 °F12.0 °F78 %30.80 inSSE (150°)6.9 mph
9:52 AM25.0 °F17.1 °F72 %30.77 inSouth (170°)11.5 mph
10:52 AM30.9 °F19.0 °F61 %30.74 inSouth (180°)9.2 mph
11:52 AM36.0 °F23.0 °F59 %30.70 inSouth (190°)11.5 mph
12:52 PM41.0 °F26.1 °F55 %30.64 inSouth (190°)10.4 mph
2:52 PM46.9 °F27.0 °F46 %30.54 inSSW (200°)15.0 mph
3:52 PM48.0 °F28.0 °F46 %30.53 inSSW (200°)10.4 mph
4:52 PM42.1 °F28.0 °F58 %30.53 inSouth (180°)6.9 mph
5:52 PM36.0 °F26.1 °F67 %30.50 inSE (140°)11.5 mph
6:52 PM33.1 °F25.0 °F72 %30.48 inSSE (160°)8.1 mph
7:52 PM30.9 °F24.1 °F76 %30.46 inSSE (150°)10.4 mph
8:52 PM30.9 °F25.0 °F79 %30.43 inSE (140°)8.1 mph
9:52 PM30.9 °F25.0 °F79 %30.39 inSouth (170°)5.8 mph
10:52 PM35.1 °F28.0 °F76 %30.33 inSSW (200°)8.1 mph
11:52 PM33.1 °F28.0 °F82 %30.31 inSSW (200°)9.2 mph
Hourly data recorded from K9V9, located miles away from Chamberlain, South Dakota







STORIES FROM OUR PARTNERS